{"data":{"norad_id":60551,"epoch":"2026-09-22T16:45:25.143552Z","epoch_age_seconds":99157,"freshness":"FRESH","line1":"1 60551U 24149CM  26265.69820768  .00001042  00000+0  97068-4 0  9994","line2":"2 60551  97.6802 339.6952 0008067 123.7581 236.4411 14.96350953114570","mean_motion":14.96350953,"eccentricity":0.0008067,"inclination_deg":97.6802,"raan_deg":339.6952,"arg_perigee_deg":123.7581,"mean_anomaly_deg":236.4411,"bstar":9.7068e-5,"rev_number":11457,"period_min":96.234108523337,"perigee_km":572.57101167969,"apogee_km":583.79433784295,"semimajor_km":6956.3196747613,"source":"CELESTRAK","updated_at":"2026-09-23T09:00:20.674093Z"}}